Regional Weather Roundup
Issued by NWS Kansas City/Pleasant Hill, MO

Home | Current Version | Previous Version | Text Only | Print | Product List | Glossary On
Versions: 1 2 3 4 5 6 7 8 9 10 11 12 13 14 15 16 17 18 19 20 21 22 23 24 25 26 27
000
ASUS43 KEAX 260510
RWREAX

WEATHER ROUNDUP FOR EASTERN KANSAS AND NORTHWEST MISSOURI
NATIONAL WEATHER SERVICE KANSAS CITY/PLEASANT HILL MO
1100 PM CST SAT FEB 25 2017

KSZ040-057-103>105-MOZ028-029-037-043-260600-
...KANSAS CITY METROPOLITAN AREA...

CITY           SKY/WX    TMP DP  RH WIND       PRES   REMARKS
K.C. INTL      CLEAR     28  13  53 S10       30.00F WCI  19
K.C. DOWNTOWN  CLEAR     36  11  35 S9        30.02F WCI  29
LEES SUMMIT    CLEAR     35  12  38 S13       30.03F WCI  26
OLATHE - IXD   CLEAR     32  13  45 S9        30.02F WCI  24
OLATHE - OJC   CLEAR     33  13  43 S9        30.02F WCI  25
LAWRENCE       CLEAR     27  14  58 SE5       30.01F WCI  22

$$

MOZ001>008-011>017-020>025-030>033-038>040-044>046-053-054-260600-
...NORTHERN AND CENTRAL MISSOURI...

CITY           SKY/WX    TMP DP  RH WIND       PRES   REMARKS
ST. JOSEPH     CLOUDY    35  16  45 S13       29.99F WCI  26
MOSBY          CLEAR     32  14  47 CALM      30.03F
WARRENSBURG    PTCLDY    32  16  51 S6        30.06F WCI  26
WHITEMAN AFB   MOCLDY    32  18  55 S10       30.05F WCI  24
CLINTON        CLOUDY    30  18  59 CALM      30.09F
SEDALIA        CLOUDY    30  16  56 S8        30.08F WCI  22
WARSAW         NOT AVBL
CHILLICOTHE      N/A     29  12  49 S5        30.05S WCI  24
KIRKSVILLE     CLOUDY    25  16  68 S8        30.05F WCI  16

$$

MOZ041-047>049-056>058-063>065-088>090-097-260600-
...EASTERN AND SOUTHERN MISSOURI...

CITY           SKY/WX    TMP DP  RH WIND       PRES   REMARKS
ST. LOUIS INTL CLEAR     31  16  54 CALM      30.13S
SPIRIT OF STL  CLEAR     24  17  74 CALM      30.13F
COLUMBIA       MOCLDY    29  11  47 S6        30.09F WCI  23
JEFFERSON CITY MOCLDY    28  15  58 SE6       30.12S WCI  22
ROLLA          CLEAR     28  12  51 SE8       30.09S WCI  20
OSAGE BEACH    CLEAR     27  15  61 SE3       30.12S
SPRINGFIELD    CLEAR     27  17  66 SE5       30.08F WCI  22
BRANSON        CLOUDY    34  14  44 S6        30.10F WCI  29
JOPLIN         CLEAR     30  16  56 S5        30.10S WCI  25
WEST PLAINS    CLEAR     27  16  63 CALM      30.12S

$$

IAZ060-094-KSZ022-034>040-054-083-096-NEZ052-066-093-260600-
...KANSAS...SOUTHEAST NEBRASKA AND IOWA...

CITY           SKY/WX    TMP DP  RH WIND       PRES   REMARKS
TOPEKA         CLEAR     34  14  43 S5        29.99F WCI  30
MANHATTAN      CLEAR     35  18  49 SW13      29.96F WCI  26
EMPORIA        CLEAR     28  17  63 S10       29.99F WCI  19
CHANUTE        CLEAR     29  14  53 SE7       30.05F WCI  22
WICHITA        CLEAR     31  18  58 SE7       29.99S WCI  24
OMAHA          CLOUDY    30  20  66 SE8       29.90F WCI  22
LINCOLN        CLEAR     32  27  81 SW7       29.91S WCI  26
FALLS CITY     PTCLDY    35  17  47 S13       29.95F WCI  26
LAMONI         CLOUDY    30  16  56 S12       29.97F WCI  20
DES MOINES     CLOUDY    31  20  63 S12       29.95F WCI  22

$$





USA.gov is the U.S. government's official web portal to all federal, state and local government web resources and services.